Location: Dötzum
(52.0808°N, 9.8063°E)
Time: 04:04:33
(UTC+00:00)

Meteor 1-24 Rocket - Pass Details

Date: 27 May 2022
Orbit: 789 x 928 km, 81.3° (Epoch: 24 June)

Event Time Altitude Azimuth Distance (km) Brightness Sun altitude
Exits shadow 00:25:34 16° 159° (SSE) 2,097 5.3 -15.2°
Maximum altitude 00:29:45 43° 94° (E) 1,145 4.5 -15.0°
Drops below altitude 10° 00:34:52 10° 24° (NNE) 2,408 7.5 -14.8°
Sets 00:37:19 0° 18° (NNE) 3,330 8.8 -14.6°
